FW8733 Weather Reports


time (UTC)temp
C
wind
direction
speed
KPH
gust
KPH
rain 1hr
cm
rain 24hr
cm
rain mn
cm
humidity
%
barometer
mb
20260902191143 38 227 0.0 0.0 0.00 0.00 0.00 42 1016.3
20260902190639 38 300 1.6 3.2 0.00 0.00 0.00 43 1016.4
20260902190134 38 231 1.6 1.6 0.00 0.00 0.00 42 1016.5
20260902185630 38 212 0.0 1.6 0.00 0.00 0.00 41 1016.6
20260902185126 38 262 3.2 3.2 0.00 0.00 0.00 42 1016.7
20260902184620 37 304 3.2 3.2 0.00 0.00 0.00 43 1017.1
20260902184116 37 269 1.6 3.2 0.00 0.00 0.00 43 1016.8
20260902183612 37 240 0.0 0.0 0.00 0.00 0.00 45 1017.2
20260902183108 37 258 4.8 8.0 0.00 0.00 0.00 45 1017.2
20260902182604 37 269 0.0 1.6 0.00 0.00 0.00 45 1017.3
20260902182100 38 220 1.6 1.6 0.00 0.00 0.00 44 1017.3
20260902181556 37 214 0.0 0.0 0.00 0.00 0.00 46 1017.4
20260902181050 36 255 0.0 1.6 0.00 0.00 0.00 51 1017.5
20260902180549 37 197 0.0 1.6 0.00 0.00 0.00 43 1017.7
20260902180046 37 163 4.8 4.8 0.00 0.00 0.00 43 1017.6
20260902175545 36 240 0.0 1.6 0.00 0.00 0.00 48 1017.9
20260902175042 36 317 3.2 3.2 0.00 0.00 0.00 49 1018.1
20260902174538 37 211 4.8 4.8 0.00 0.00 0.00 44 1018.0
20260902174033 37 208 1.6 3.2 0.00 0.00 0.00 46 1018.1
20260902173533 36 264 1.6 3.2 0.00 0.00 0.00 47 1018.3
20260902173033 36 239 1.6 1.6 0.00 0.00 0.00 46 1018.4
20260902172527 36 261 0.0 1.6 0.00 0.00 0.00 48 1018.4
20260902172022 36 168 1.6 3.2 0.00 0.00 0.00 46 1018.3
20260902171518 36 209 0.0 1.6 0.00 0.00 0.00 49 1018.5
20260902171014 36 258 1.6 1.6 0.00 0.00 0.00 49 1018.6
20260902170508 36 208 3.2 3.2 0.00 0.00 0.00 48 1018.7
20260902170004 35 229 0.0 0.0 0.00 0.00 0.00 50 1018.6
20260902165503 36 289 3.2 3.2 0.00 0.00 0.00 49 1018.7
20260902164958 36 176 4.8 8.0 0.00 0.00 0.00 47 1018.7
20260902164453 36 208 0.0 0.0 0.00 0.00 0.00 49 1018.8
20260902163952 36 208 1.6 1.6 0.00 0.00 0.00 49 1018.8
20260902163448 35 221 1.6 1.6 0.00 0.00 0.00 50 1019.2
20260902162945 35 220 0.0 0.0 0.00 0.00 0.00 50 1019.0
20260902162440 35 214 0.0 0.0 0.00 0.00 0.00 54 1019.2
20260902161935 34 212 1.6 1.6 0.00 0.00 0.00 52 1019.0
20260902161430 35 283 3.2 3.2 0.00 0.00 0.00 52 1018.9
20260902160926 34 182 0.0 0.0 0.00 0.00 0.00 53 1019.1
20260902160421 33 243 1.6 1.6 0.00 0.00 0.00 55 1019.2
20260902155920 33 144 0.0 0.0 0.00 0.00 0.00 54 1019.1
20260902155415 33 312 1.6 1.6 0.00 0.00 0.00 56 1019.3
20260902154908 34 302 3.2 3.2 0.00 0.00 0.00 55 1019.1
20260902154404 34 226 1.6 3.2 0.00 0.00 0.00 56 1019.1
20260902153903 33 234 0.0 1.6 0.00 0.00 0.00 59 1019.2
20260902153402 34 249 0.0 0.0 0.00 0.00 0.00 57 1019.0
20260902152858 33 224 0.0 0.0 0.00 0.00 0.00 59 1019.2
20260902152354 33 211 1.6 1.6 0.00 0.00 0.00 60 1019.0
20260902151849 33 227 1.6 1.6 0.00 0.00 0.00 61 1019.1
20260902151345 33 237 0.0 0.0 0.00 0.00 0.00 64 1019.2
20260902150839 32 238 1.6 1.6 0.00 0.00 0.00 62 1019.3
20260902150335 32 244 0.0 0.0 0.00 0.00 0.00 63 1019.2
20260902145835 32 185 0.0 0.0 0.00 0.00 0.00 64 1019.2
20260902145330 32 228 0.0 0.0 0.00 0.00 0.00 63 1019.0
20260902144825 31 226 0.0 0.0 0.00 0.00 0.00 67 1019.3
20260902144321 31 249 3.2 3.2 0.00 0.00 0.00 66 1019.3
20260902143816 30 218 0.0 0.0 0.00 0.00 0.00 68 1019.3
20260902143311 30 251 3.2 3.2 0.00 0.00 0.00 70 1019.5
20260902142807 30 217 0.0 0.0 0.00 0.00 0.00 72 1019.4
20260902142306 29 234 0.0 0.0 0.00 0.00 0.00 71 1019.2
20260902141803 28 237 0.0 0.0 0.00 0.00 0.00 74 1019.5
20260902141259 27 236 0.0 0.0 0.00 0.00 0.00 77 1019.3
20260902140758 27 230 0.0 0.0 0.00 0.00 0.00 78 1019.4
20260902140254 27 230 0.0 0.0 0.00 0.00 0.00 78 1019.4
20260902135752 27 231 0.0 0.0 0.00 0.00 0.00 78 1019.3
20260902135249 27 234 0.0 0.0 0.00 0.00 0.00 76 1019.4
20260902134748 27 224 0.0 0.0 0.00 0.00 0.00 77 1019.2
20260902134243 27 223 0.0 0.0 0.00 0.00 0.00 78 1019.2
20260902133739 27 199 0.0 0.0 0.00 0.00 0.00 78 1019.2
20260902133238 27 226 0.0 0.0 0.00 0.00 0.00 79 1019.1
20260902132733 27 236 0.0 0.0 0.00 0.00 0.00 78 1019.0
20260902132229 28 236 0.0 0.0 0.00 0.00 0.00 77 1019.0
20260902131724 28 226 0.0 0.0 0.00 0.00 0.00 76 1019.1
20260902131220 28 232 0.0 0.0 0.00 0.00 0.00 75 1019.0
20260902130720 27 226 0.0 0.0 0.00 0.00 0.00 76 1018.8
20260902130216 26 225 0.0 0.0 0.00 0.00 0.00 80 1018.8
20260902125711 26 227 0.0 0.0 0.00 0.00 0.00 83 1018.8
20260902125208 25 223 0.0 0.0 0.00 0.00 0.00 84 1018.8
20260902124704 25 231 0.0 0.0 0.00 0.00 0.00 85 1018.7
20260902124204 25 231 0.0 0.0 0.00 0.00 0.00 86 1018.9
20260902123659 25 231 0.0 0.0 0.00 0.00 0.00 86 1018.6
20260902123155 24 230 0.0 0.0 0.00 0.00 0.00 86 1018.7
20260902122654 24 231 0.0 0.0 0.00 0.00 0.00 86 1018.4
20260902122150 24 231 0.0 0.0 0.00 0.00 0.00 86 1018.6
20260902121644 24 228 0.0 0.0 0.00 0.00 0.00 86 1018.5
20260902121139 24 229 0.0 0.0 0.00 0.00 0.00 86 1018.5
20260902120635 24 229 0.0 0.0 0.00 0.00 0.00 85 1018.5
20260902120131 24 229 0.0 0.0 0.00 0.00 0.00 85 1018.4
20260902115620 25 236 0.0 0.0 0.00 0.00 0.00 85 1018.5
20260902115116 25 236 0.0 0.0 0.00 0.00 0.00 84 1018.4
20260902114612 25 236 0.0 0.0 0.00 0.00 0.00 84 1018.5
20260902114112 24 231 0.0 0.0 0.00 0.00 0.00 85 1018.4
20260902113608 24 230 0.0 0.0 0.00 0.00 0.00 86 1018.3
20260902113102 24 225 0.0 0.0 0.00 0.00 0.00 85 1018.2
20260902112558 25 231 0.0 0.0 0.00 0.00 0.00 85 1018.3
20260902112054 25 231 0.0 0.0 0.00 0.00 0.00 85 1018.3
20260902111550 25 231 0.0 0.0 0.00 0.00 0.00 84 1018.2
20260902111046 25 231 0.0 0.0 0.00 0.00 0.00 84 1018.2
20260902110542 25 231 0.0 0.0 0.00 0.00 0.00 84 1018.1
20260902110037 25 231 0.0 0.0 0.00 0.00 0.00 84 1018.0
20260902105532 25 230 0.0 0.0 0.00 0.00 0.00 83 1018.1
20260902105032 25 236 0.0 0.0 0.00 0.00 0.00 83 1018.0
20260902104528 25 236 0.0 0.0 0.00 0.00 0.00 82 1018.2
20260902104027 25 236 0.0 0.0 0.00 0.00 0.00 82 1018.3
20260902103523 25 236 0.0 0.0 0.00 0.00 0.00 81 1018.2
20260902103018 25 238 0.0 0.0 0.00 0.00 0.00 81 1018.2
20260902102515 25 242 0.0 0.0 0.00 0.00 0.00 82 1018.1
20260902102011 25 236 0.0 0.0 0.00 0.00 0.00 82 1018.1
20260902101506 25 229 0.0 0.0 0.00 0.00 0.00 82 1018.4
20260902101005 25 229 0.0 0.0 0.00 0.00 0.00 82 1018.2
20260902100500 25 226 0.0 0.0 0.00 0.00 0.00 81 1018.1
20260902100000 25 235 0.0 0.0 0.00 0.00 0.00 82 1018.2
20260902095454 25 236 0.0 0.0 0.00 0.00 0.00 81 1018.2
20260902094954 25 238 0.0 0.0 0.00 0.00 0.00 82 1018.3
20260902094449 25 227 0.0 0.0 0.00 0.00 0.00 82 1018.0
20260902093944 25 236 0.0 0.0 0.00 0.00 0.00 82 1018.2
20260902093439 25 229 0.0 0.0 0.00 0.00 0.00 81 1018.3
20260902092938 25 234 0.0 0.0 0.00 0.00 0.00 80 1018.2
20260902092434 25 231 0.0 0.0 0.00 0.00 0.00 80 1018.2
20260902091934 25 230 0.0 0.0 0.00 0.00 0.00 80 1018.2
20260902091429 25 229 0.0 0.0 0.00 0.00 0.00 80 1018.2
20260902090925 26 230 0.0 0.0 0.00 0.00 0.00 79 1018.2
20260902090420 26 236 0.0 0.0 0.00 0.00 0.00 79 1018.3
20260902085919 25 229 0.0 0.0 0.00 0.00 0.00 79 1018.1
20260902085414 26 229 0.0 0.0 0.00 0.00 0.00 77 1018.3
20260902084909 26 229 0.0 0.0 0.00 0.00 0.00 76 1018.1
20260902084406 26 236 0.0 0.0 0.00 0.00 0.00 77 1018.3
20260902083901 26 230 0.0 0.0 0.00 0.00 0.00 76 1018.3
20260902083401 26 229 0.0 0.0 0.00 0.00 0.00 77 1018.3
20260902082856 26 238 0.0 0.0 0.00 0.00 0.00 77 1018.0
20260902082351 26 253 0.0 0.0 0.00 0.00 0.00 78 1018.2
20260902081848 26 239 0.0 0.0 0.00 0.00 0.00 77 1018.1
20260902081344 26 239 0.0 0.0 0.00 0.00 0.00 77 1018.4
20260902080838 26 231 0.0 0.0 0.00 0.00 0.00 77 1018.3
20260902080335 26 235 0.0 0.0 0.00 0.00 0.00 77 1018.4
20260902075834 26 226 0.0 0.0 0.00 0.00 0.00 77 1018.3
20260902075331 26 240 0.0 0.0 0.00 0.00 0.00 77 1018.5
20260902074826 26 229 0.0 0.0 0.00 0.00 0.00 77 1018.4
20260902074321 26 231 0.0 0.0 0.00 0.00 0.00 76 1018.2
20260902073816 26 231 0.0 0.0 0.00 0.00 0.00 75 1018.3
20260902073312 26 241 0.0 0.0 0.00 0.00 0.00 76 1018.4
20260902072808 27 237 0.0 0.0 0.00 0.00 0.00 76 1018.3
20260902072308 27 239 0.0 0.0 0.00 0.00 0.00 75 1018.3
20260902071800 27 242 0.0 0.0 0.00 0.00 0.00 74 1018.4
20260902071254 27 236 0.0 0.0 0.00 0.00 0.00 74 1018.5
20260902070751 27 242 0.0 0.0 0.00 0.00 0.00 75 1018.4
20260902070250 27 229 0.0 0.0 0.00 0.00 0.00 76 1018.5
20260902065749 27 235 0.0 0.0 0.00 0.00 0.00 76 1018.4
20260902065244 27 228 0.0 0.0 0.00 0.00 0.00 77 1018.7
20260902064740 27 232 0.0 0.0 0.00 0.00 0.00 76 1018.4
20260902064236 27 241 0.0 0.0 0.00 0.00 0.00 76 1018.6
20260902063731 27 232 0.0 0.0 0.00 0.00 0.00 75 1018.5
20260902063226 27 219 0.0 1.6 0.00 0.00 0.00 75 1018.4
20260902062725 27 228 0.0 0.0 0.00 0.00 0.00 74 1018.3
20260902062221 28 224 0.0 0.0 0.00 0.00 0.00 74 1018.3
20260902061719 28 242 0.0 0.0 0.00 0.00 0.00 73 1018.5
20260902061215 28 222 0.0 1.6 0.00 0.00 0.00 73 1018.4
20260902060712 28 231 0.0 0.0 0.00 0.00 0.00 73 1018.4
20260902060207 28 225 0.0 1.6 0.00 0.00 0.00 72 1018.5
20260902055703 28 237 0.0 0.0 0.00 0.00 0.00 72 1018.4
20260902055159 28 195 3.2 3.2 0.00 0.00 0.00 72 1018.3
20260902054654 28 188 1.6 3.2 0.00 0.00 0.00 72 1018.4
20260902054149 28 203 3.2 3.2 0.00 0.00 0.00 72 1018.5
20260902053645 28 201 1.6 3.2 0.00 0.00 0.00 72 1018.3
20260902053145 28 226 1.6 3.2 0.00 0.00 0.00 72 1018.3
20260902052644 28 210 1.6 1.6 0.00 0.00 0.00 71 1018.4
20260902052140 28 199 1.6 3.2 0.00 0.00 0.00 71 1018.5
20260902051638 28 219 1.6 1.6 0.00 0.00 0.00 71 1018.4
20260902051134 29 191 4.8 4.8 0.00 0.00 0.00 70 1018.3
20260902050633 29 201 1.6 1.6 0.00 0.00 0.00 70 1018.4
20260902050129 29 176 3.2 3.2 0.00 0.00 0.00 69 1018.4
20260902045624 29 199 4.8 4.8 0.00 0.00 0.00 69 1018.5
20260902045120 30 194 4.8 4.8 0.00 0.00 0.00 69 1018.5
20260902044620 30 197 3.2 4.8 0.00 0.00 0.00 68 1018.5
20260902044116 30 176 3.2 4.8 0.00 0.00 0.00 68 1018.2
20260902043611 30 199 1.6 3.2 0.00 0.00 0.00 68 1018.2
20260902043106 30 226 1.6 3.2 0.00 0.00 0.00 67 1018.3
20260902042606 30 167 6.4 8.0 0.00 0.00 0.00 66 1018.5
20260902042102 30 152 6.4 8.0 0.00 0.00 0.00 66 1018.4
20260902041601 30 157 4.8 4.8 0.00 0.00 0.00 66 1018.5
20260902041055 30 219 1.6 1.6 0.00 0.00 0.00 65 1018.2
20260902040550 30 211 1.6 1.6 0.00 0.00 0.00 65 1018.1
20260902040044 30 197 1.6 3.2 0.00 0.00 0.00 64 1018.2
20260902035543 30 183 6.4 8.0 0.00 0.00 0.00 64 1018.1
20260902035038 30 208 1.6 1.6 0.00 0.00 0.00 64 1018.3
20260902034538 30 206 0.0 1.6 0.00 0.00 0.00 64 1018.1
20260902034037 30 197 3.2 3.2 0.00 0.00 0.00 63 1018.2
20260902033536 30 210 1.6 3.2 0.00 0.00 0.00 62 1018.0
20260902033031 30 171 4.8 8.0 0.00 0.00 0.00 62 1017.8
20260902032530 30 195 3.2 3.2 0.00 0.00 0.00 62 1018.0
20260902032025 30 194 4.8 8.0 0.00 0.00 0.00 62 1017.9
20260902031520 30 123 4.8 4.8 0.00 0.00 0.00 63 1017.8
20260902031016 30 219 0.0 0.0 0.00 0.00 0.00 63 1018.0
20260902030511 30 203 1.6 3.2 0.00 0.00 0.00 63 1017.6
20260902030011 30 205 0.0 1.6 0.00 0.00 0.00 62 1017.5
20260902025505 30 199 3.2 3.2 0.00 0.00 0.00 62 1017.6
20260902025000 31 214 0.0 1.6 0.00 0.00 0.00 61 1017.2
20260902024456 31 203 1.6 1.6 0.00 0.00 0.00 61 1017.1
20260902023950 31 200 3.2 3.2 0.00 0.00 0.00 59 1017.3
20260902023446 31 199 1.6 1.6 0.00 0.00 0.00 59 1017.2
20260902022945 31 209 3.2 3.2 0.00 0.00 0.00 59 1017.1
20260902022441 31 170 1.6 3.2 0.00 0.00 0.00 58 1017.0
20260902021936 32 196 4.8 4.8 0.00 0.00 0.00 58 1016.6
20260902021431 32 162 4.8 4.8 0.00 0.00 0.00 57 1016.4
20260902020926 32 137 4.8 8.0 0.00 0.00 0.00 57 1016.5
20260902020423 32 159 4.8 4.8 0.00 0.00 0.00 56 1016.5
20260902015918 32 217 4.8 8.0 0.00 0.00 0.00 56 1016.5
20260902015414 32 191 4.8 4.8 0.00 0.00 0.00 56 1016.6
20260902014909 32 178 1.6 4.8 0.00 0.00 0.00 56 1016.5
20260902014406 32 227 0.0 1.6 0.00 0.00 0.00 56 1016.3
20260902013904 32 216 0.0 1.6 0.00 0.00 0.00 55 1016.2
20260902013400 32 211 1.6 1.6 0.00 0.00 0.00 54 1016.0
20260902012855 32 205 1.6 3.2 0.00 0.00 0.00 54 1016.0
20260902012351 32 197 3.2 3.2 0.00 0.00 0.00 54 1016.0
20260902011847 32 212 1.6 1.6 0.00 0.00 0.00 54 1016.0
20260902011341 32 203 1.6 1.6 0.00 0.00 0.00 53 1015.8
20260902010840 33 205 0.0 1.6 0.00 0.00 0.00 53 1015.7
20260902010330 33 198 0.0 0.0 0.00 0.00 0.00 52 1015.8
20260902005829 33 198 6.4 8.0 0.00 0.00 0.00 51 1015.6
20260902005323 33 201 1.6 3.2 0.00 0.00 0.00 51 1015.6
20260902004819 33 179 4.8 4.8 0.00 0.00 0.00 50 1015.7
20260902004314 33 195 3.2 3.2 0.00 0.00 0.00 50 1015.7
20260902003808 34 188 3.2 3.2 0.00 0.00 0.00 49 1015.9
20260902003304 34 134 6.4 8.0 0.00 0.00 0.00 49 1015.9
20260902002759 34 139 9.7 11.3 0.00 0.00 0.00 49 1016.0
20260902002259 35 201 4.8 4.8 0.00 0.00 0.00 49 1015.8
20260902001754 35 119 8.0 12.9 0.00 0.00 0.00 48 1016.1
20260902001250 35 185 9.7 11.3 0.00 0.00 0.00 48 1015.9
20260902000749 35 227 6.4 8.0 0.00 0.00 0.00 47 1015.9
20260902000244 35 170 6.4 11.3 0.00 0.00 0.00 45 1016.1
20260901235739 35 218 3.2 3.2 0.00 0.00 0.00 46 1015.7
20260901235234 35 224 1.6 1.6 0.00 0.00 0.00 46 1015.9
20260901234733 35 217 0.0 1.6 0.00 0.00 0.00 46 1016.1
20260901234233 35 226 0.0 1.6 0.00 0.00 0.00 47 1015.7
20260901233728 35 212 1.6 3.2 0.00 0.00 0.00 47 1015.9
20260901233224 36 186 1.6 3.2 0.00 0.00 0.00 46 1015.8
20260901232719 36 206 0.0 1.6 0.00 0.00 0.00 44 1015.7
20260901232214 36 233 0.0 0.0 0.00 0.00 0.00 45 1015.6
20260901231711 36 228 0.0 0.0 0.00 0.00 0.00 44 1015.8
20260901231207 37 203 3.2 8.0 0.00 0.00 0.00 44 1015.7
20260901230702 37 193 1.6 3.2 0.00 0.00 0.00 43 1015.9
20260901230202 37 211 3.2 3.2 0.00 0.00 0.00 42 1015.8
20260901225657 37 219 8.0 9.7 0.00 0.00 0.00 42 1016.0
20260901225151 37 262 0.0 1.6 0.00 0.00 0.00 42 1015.8
20260901224648 37 230 0.0 0.0 0.00 0.00 0.00 43 1015.5
20260901224143 37 165 4.8 8.0 0.00 0.00 0.00 42 1015.8
20260901223639 37 214 1.6 1.6 0.00 0.00 0.00 40 1015.8
20260901223134 37 230 0.0 0.0 0.00 0.00 0.00 41 1015.8
20260901222630 37 183 6.4 9.7 0.00 0.00 0.00 40 1015.9
20260901222126 38 229 0.0 0.0 0.00 0.00 0.00 40 1015.7
20260901221622 37 205 1.6 1.6 0.00 0.00 0.00 40 1015.9
20260901221117 37 181 4.8 4.8 0.00 0.00 0.00 41 1015.7
20260901220616 37 205 6.4 9.7 0.00 0.00 0.00 40 1016.0
20260901220115 37 171 3.2 4.8 0.00 0.00 0.00 41 1015.9
20260901215614 37 174 6.4 9.7 0.00 0.00 0.00 42 1015.9
20260901215108 37 249 1.6 3.2 0.00 0.00 0.00 43 1016.1
20260901214607 37 210 0.0 1.6 0.00 0.00 0.00 45 1016.0
20260901214107 36 217 0.0 1.6 0.00 0.00 0.00 46 1015.9
20260901213601 36 195 1.6 3.2 0.00 0.00 0.00 45 1016.1
20260901213055 37 199 4.8 4.8 0.00 0.00 0.00 43 1016.1
20260901212555 37 198 6.4 9.7 0.00 0.00 0.00 43 1016.2
20260901212052 36 231 3.2 3.2 0.00 0.00 0.00 43 1016.1
20260901211547 35 225 0.0 0.0 0.00 0.00 0.00 47 1016.3
20260901211043 35 244 0.0 0.0 0.00 0.00 0.00 48 1016.2
20260901210538 36 191 6.4 8.0 0.00 0.00 0.00 45 1016.5
20260901210035 37 223 0.0 0.0 0.00 0.00 0.00 43 1016.4
20260901205529 37 288 4.8 4.8 0.00 0.00 0.00 44 1016.7
20260901205024 36 236 0.0 1.6 0.00 0.00 0.00 44 1016.5
20260901204521 36 241 0.0 0.0 0.00 0.00 0.00 47 1016.8
20260901204021 36 170 6.4 8.0 0.00 0.00 0.00 44 1016.8
20260901203515 37 227 6.4 9.7 0.00 0.00 0.00 43 1016.8
20260901203010 37 245 1.6 1.6 0.00 0.00 0.00 45 1017.0
20260901202505 36 224 0.0 0.0 0.00 0.00 0.00 48 1017.1
20260901202001 36 195 6.4 9.7 0.00 0.00 0.00 46 1017.1
20260901201456 36 211 1.6 3.2 0.00 0.00 0.00 45 1017.3
20260901200950 37 206 1.6 1.6 0.00 0.00 0.00 43 1017.4
20260901200445 36 219 1.6 1.6 0.00 0.00 0.00 44 1017.5
20260901195944 36 183 11.3 12.9 0.00 0.00 0.00 43 1017.5
20260901195443 36 209 3.2 4.8 0.00 0.00 0.00 44 1017.5
20260901194937 37 141 8.0 11.3 0.00 0.00 0.00 44 1017.5
20260901194432 37 177 4.8 8.0 0.00 0.00 0.00 43 1017.6
20260901193929 36 156 4.8 8.0 0.00 0.00 0.00 45 1017.7
20260901193428 35 254 3.2 3.2 0.00 0.00 0.00 47 1017.8
20260901192927 36 218 0.0 1.6 0.00 0.00 0.00 46 1017.7
20260901192423 36 239 0.0 0.0 0.00 0.00 0.00 47 1017.9
20260901191914 36 164 9.7 9.7 0.00 0.00 0.00 44 1018.0